Regional Weather Roundup
Issued by NWS

Home | Current Version | Previous Version | Graphics & Text | Print | Product List | Glossary On
Versions: 1 2 3 4 5 6 7 8 9 10 11 12 13 14 15 16 17 18 19 20 21 22 23 24 25 26 27 28 29 30 31 32 33 34 35 36 37 38 39 40 41 42 43 44 45 46 47 48 49 50
591
ASUS45 KTFX 230810
RWRMT
MONTANA REGIONAL WEATHER ROUNDUP
NATIONAL WEATHER SERVICE GREAT FALLS MT
200 AM MDT FRI JUN 23 2017

NOTE: "FAIR" INDICATES FEW OR NO CLOUDS BELOW 12000 FEET WITH NO
SIGNIFICANT WEATHER AND/OR OBSTRUCTIONS TO VISIBILITY.

MTZ001>007-043-230900-
WEST OF THE DIVIDE

CITY           SKY/WX    TMP DP  RH WIND       PRES   REMARKS
KALISPELL      CLEAR     44  41  89 NW3       30.21R
MISSOULA       CLEAR     47  37  68 NW5       30.24R
BUTTE          CLEAR     45  31  58 CALM      30.29F
MULLAN PASS    CLEAR     47  27  45 NW6       30.31S
DEER LODGE       N/A     45  34  65 CALM      30.30S
EUREKA           N/A     50  37  62 MISG      30.21
$$

MTZ008-052>055-230900-
SOUTHWEST MONTANA

CITY           SKY/WX    TMP DP  RH WIND       PRES   REMARKS
BOZEMAN        CLEAR     46  36  68 SW7       30.27F
DILLON         CLEAR     44  31  60 E5        30.27S
W YELLOWSTONE  CLEAR     41  27  56 N3        30.32F
ENNIS          CLEAR     46  30  53 CALM      30.33S
THREE FORKS      N/A     41  34  76 CALM      30.24F
$$

MTZ009-010-012-014-046-048-049-054-230900-
EAST SLOPES AND CENTRAL MONTANA

CITY           SKY/WX    TMP DP  RH WIND       PRES   REMARKS
CUT BANK       CLOUDY    44  39  82 NW6       30.28S
GREAT FALLS    CLEAR     42  35  76 CALM      30.28S
MALMSTROM AFB  CLEAR     40  37  89 CALM      30.28S
HELENA         CLEAR     46  37  71 CALM      30.27S
CHOTEAU          N/A     46  37  71 CALM      30.31R
$$

MTZ011-013-016-021-045-047-050-051-230900-
NORTH CENTRAL MONTANA

CITY           SKY/WX    TMP DP  RH WIND       PRES   REMARKS
HAVRE          PTCLDY    42  37  82 SW13      30.25R
LEWISTOWN      CLEAR     39  34  82 W8        30.28F
N BAR RANCH      N/A     43  32  65 NW9       30.29R
CHINOOK          N/A     39  36  87 W3        30.24R
FORT BENTON      N/A     45  37  76 CALM      30.29S
$$

MTZ017>020-022>027-061-062-230900-
NORTHEAST MONTANA

CITY           SKY/WX    TMP DP  RH WIND       PRES   REMARKS
GLASGOW        PTCLDY    47  41  80 W8        30.17R
JORDAN           N/A     50  38  63 W10       30.21S
SIDNEY         MOCLDY    51  44  77 W13       30.10R
WOLF POINT     MOCLDY    49  42  77 W9        30.16R
MALTA          CLOUDY    45  39  81 W7        30.22R
PLENTYWOOD       N/A     45  43  93 CALM      30.08R
POPLAR           N/A     46  43  87 W8        30.14R
$$

MTZ028>42-056>058-230900-
SOUTHCENTRAL AND SOUTHEAST MONTANA

CITY           SKY/WX    TMP DP  RH WIND       PRES   REMARKS
BAKER          CLOUDY    51  44  77 NW17G23   30.15R
BILLINGS       CLEAR     52  34  50 SW3       30.28S
LIVINGSTON     CLEAR     41  34  76 NE3       30.29F
MILES CITY     CLOUDY    56  38  50 NW16G26   30.20S
BIG TIMBER     CLEAR     41  34  75 SW8       30.32F
FORSYTH          N/A     55  39  54 NW10G16   30.23S
ROUNDUP          N/A     50  32  50 NW3       30.16S
$$

REGIONAL REPORTS...DAKOTAS

CITY           SKY/WX    TMP DP  RH WIND       PRES   REMARKS
WILLISTON      CLOUDY    52  46  80 W12       30.06R
MINOT          CLOUDY    55  48  77 W21G33    29.92R
DICKINSON      CLOUDY    50  45  83 NW20G29   30.03R
BEACH          CLOUDY    50  46  87 NW15G24   30.14R
CROSBY         MOCLDY    50  46  87 NW15G21   30.02S
TIOGA          CLOUDY    50  50 100 NW15G21   30.03R
WATFORD CITY   MOCLDY    52  46  82 NW13G18   30.05S
BISMARCK       CLOUDY    58  48  69 NW23G36   29.94S
GRAND FORKS    PTCLDY    60  53  77 W13       29.69S
FARGO          CLEAR     56  47  71 W7        29.74S
BUFFALO SD       N/A     54  43  66 NW25      30.07S
RAPID CITY     MOCLDY    55  37  50 N16G26    30.15R
$$

REGIONAL REPORTS...WYOMING/IDAHO/WASHINGTON

CITY           SKY/WX    TMP DP  RH WIND       PRES   REMARKS
GILLETTE       CLOUDY    51  37  58 N12       30.25F
SHERIDAN       PTCLDY    46  38  73 NW8       30.28S
BUFFALO WY     CLOUDY    48  36  63 N8G21     30.29S
CODY           CLEAR     47  36  65 NW5       30.33S
YELLOWSTONE LA   N/A     35  27  72 NW3       30.36F
IDAHO FALLS    CLEAR     51  38  60 N12       30.19S
SALMON         CLEAR     45  30  57 N3        30.22S
BOISE          CLEAR     60  35  39 W5        30.12R
SPOKANE        CLEAR     58  38  47 W6        30.21S
$$

REGIONAL REPORTS...ALBERTA

CITY           SKY/WX    TMP DP  RH WIND       PRES   REMARKS
EDMONTON       CLEAR     45  39  81 W7        30.20S
CALGARY        MOCLDY    50  43  76 W9        30.28S
LETHBRIDGE     CLOUDY    48  43  81 SW5       30.26S
MEDICINE HAT   CLEAR     39  37  93 S3        30.23R
WATERTON GATE    N/A     41  39  93 CALM        N/A
CARDSTON         N/A     45  37  76 SW3         N/A
MILK RIVER       N/A     41  39  93 NW6         N/A
$$

REGIONAL REPORTS...SASKATCHEWAN

CITY           SKY/WX    TMP DP  RH WIND       PRES   REMARKS
SWIFT CURRENT  PTCLDY    39  37  93 W8        30.14S
REGINA         MOCLDY    48  41  76 NW15G21   30.04S
SASKATOON      PTCLDY    39  37  93 W9        30.10S
CYPRESS HILLS    N/A     39  32  75 NW5         N/A
VAL MARIE        N/A     37  36  93 NW9         N/A  WCI  31
ROCKGLEN         N/A     41  37  87 NW12        N/A
ASSINIBOIA       N/A     46  39  76 W7          N/A
$$




USA.gov is the U.S. government's official web portal to all federal, state and local government web resources and services.